IRIDIUM 116 (43072 NORAD) Tracking and Keplerian Element Data

This shows tracking and keplerian element data for the satellite.

Feedback or suggestion? Click here.




ElementValue
Catalog43072
NameIRIDIUM 116
Epoch Orbit24927
Epoch Day269.4265718
Epoch Year2022
RAAN170.3162
Inclination86.4037
Eccentricity0.0001878
Argument of Perigee79.5651
Mean Anonmoly280.5756
Mean Motion14.34217853
Decay Rate2.15E-06
L11 43072U 17083C 22269.42657180 .00000215 00000+0 69740-4 0 9996
L22 43072 86.4037 170.3162 0001878 79.5651 280.5756 14.34217853249278

Live tracking and technical data element details for IRIDIUM 116 (NORAD 43072). IRIDIUM 116 can be tracked NOW for your location showing map with azimuth and elevation plus other details from your city location.

Track the satellite on the map from your city or location and see movement details for azimuth, elevation, latitude, longitude, range, height, and movement on the map or in text.







IsCatalogInMostPopularTable: catalog: 43072, numindb: 693
Update: records affected: 1



GetName: 43072 IRIDIUM 116

Hit Count: updated at: Thu, 29 Sep 2022 10:24:10 GMT